Location: Dolní Kamenice
(50.2935°N, 14.2428°E)
Time: 06:53:20
(UTC+00:00)

Daily predictions for brighter satellites

Satellite Brightness Start Highest point End
(mag) Time Altitude Azimuth Time Altitude Azimuth Time Altitude Azimuth
Cosmos 773 Rocket 4.4 19:41:51 10° NNW 19:47:06 66° WSW 19:52:19 10° S
ASTEX 1 4.1 19:42:57 10° NNE 19:47:25 35° E 19:51:50 10° SSE
Cosmos 2297 Rocket 4.4 19:46:45 10° N 19:50:21 17° NNE 19:53:57 10° ENE
Cosmos 1340 Rocket 3.3 19:53:25 10° NNW 19:57:13 56° W 20:00:57 10° S
Ariane Rocket 3.4 19:53:23 10° SE 19:58:14 50° ENE 20:03:07 10° N
SAR-Lupe-2 4.1 19:55:33 10° SE 19:58:58 45° ENE 20:02:26 10° N
CZ-4C R/B 2.8 19:56:18 10° S 19:59:50 25° ESE 20:04:04 10° ENE
CZ-4B R/B 4.1 19:56:31 10° SSW 19:59:50 35° W 20:03:19 10° NNW
ISS -3.4 19:56:45 10° W 20:00:05 69° N 20:03:26 10° E
Okean 2 Rocket 3.1 19:56:31 10° N 20:00:54 69° ENE 20:05:14 10° SSE
Cosmos 2263 4.4 19:57:09 10° S 20:02:36 51° ESE 20:08:02 10° NE
Cosmos 1869 3.1 19:59:48 10° NNW 20:03:24 83° W 20:06:56 10° S
Cosmos 1777 Rocket 4.0 20:02:27 10° SSW 20:07:39 82° ESE 20:12:52 10° NNE
Cosmos 2151 Rocket 3.7 20:03:10 10° NNW 20:07:42 85° W 20:12:12 10° S
BREEZE-M DEB (TANK) 3.4 20:06:45 10° S 20:08:55 22° SE 20:12:49 10° E
SOZ 4.4 20:07:43 10° SW 20:10:14 49° SSE 20:12:29 10° E
Cosmos 44 3.8 20:07:46 10° S 20:11:33 31° ESE 20:15:27 10° NE
Nadezhda 4 Rocket 4.2 20:08:03 10° SSE 20:14:09 55° E 20:20:19 10° NNE
Lacrosse 5 rocket 3.1 20:11:04 10° WNW 20:14:32 30° N 20:18:03 10° ENE
Okean 1 Rocket 3.0 20:10:41 10° N 20:15:04 74° ENE 20:19:23 10° SSE
Helios 1A 3.0 20:13:17 10° NNE 20:17:14 79° WNW 20:21:11 10° SSW
Helios 1B rocket 3.9 20:14:06 10° SSW 20:17:22 29° W 20:20:38 10° NW
Cosmos 1515 4.3 20:16:58 10° NNE 20:19:07 22° ENE 20:20:37 14° ESE
Cosmos 2221 Rocket 3.6 20:16:39 10° S 20:21:07 70° E 20:25:39 10° NNE
Cosmos 2285 Rocket 4.5 20:16:26 10° S 20:22:20 42° ESE 20:28:18 10° NE
Gbstr 26 Del rocket 3.7 20:19:36 10° W 20:24:27 78° N 20:30:30 10° E
Terra 3.0 20:20:54 10° SSW 20:25:18 39° W 20:29:44 10° NNW
NOSS 3-4 (A) 4.3 20:19:02 10° NW 20:25:40 57° SW 20:33:06 11° SSE
NOSS 3-4 (C) 4.3 20:19:05 10° NW 20:25:43 58° SW 20:33:06 11° SSE
Cosmos 1455 Rocket 3.5 20:22:28 10° N 20:26:39 47° ENE 20:30:04 15° SSE
SPOT 3 Rocket 3.6 20:23:34 10° SSE 20:28:46 86° WSW 20:34:02 10° NNW
Cosmos 2026 Rocket 4.5 20:27:46 12° SSE 20:32:59 42° E 20:38:37 10° NNE
Spot 2 Rocket 4.2 20:28:10 10° S 20:33:07 52° W 20:38:06 10° NNW
Sich 1 Rocket 3.9 20:28:35 10° NNW 20:33:08 68° W 20:37:38 10° S
IRS-1C Rocket 4.4 20:32:36 10° S 20:37:49 64° WSW 20:43:04 10° NNW
Cosmos 1818 4.1 20:33:06 10° NW 20:38:23 52° WSW 20:42:53 14° SSE
Cosmos 1674 Rocket 4.2 20:35:08 10° SSW 20:39:29 57° WNW 20:43:53 10° N
ATLAS 5 CENTAUR R/B 4.4 20:38:12 10° NNW 20:39:46 12° N 20:41:25 10° NNE
Cosmos 1898 Rocket 4.4 20:36:10 14° SSE 20:39:50 31° ESE 20:44:24 10° NE
Cosmos 1833 4.4 20:34:14 10° NNW 20:39:53 67° WSW 20:44:42 14° SSE
Cosmos 1538 Rocket 4.1 20:38:07 10° NNW 20:43:32 80° ENE 20:47:45 17° SSE
Cosmos 2297 4.3 20:44:30 10° SW 20:50:05 59° NW 20:55:44 10° NNE
PSLV R/B 3.4 20:49:20 18° S 20:51:29 69° WSW 20:54:37 10° NNW
Cosmos 1812 2.5 20:48:22 10° NNW 20:51:30 62° W 20:53:43 18° S
Meteor 1-11 4.4 20:47:40 10° SSW 20:53:31 79° WNW 20:59:20 10° N
Cosmos 1092 Rocket 4.2 20:50:30 14° SSE 20:55:47 57° E 21:01:57 10° NNE
ARIANE 5 R/B 4.2 20:53:15 13° ESE 20:56:16 25° ENE 20:59:53 10° N
Meteor 2-1 Rocket 4.5 20:50:53 10° NNW 20:56:43 71° W 21:01:41 14° S
ATLAS 2AS CENTAUR R/B 4.4 20:51:56 10° NW 20:57:52 30° NNE 21:03:40 10° ENE
Okean O Rocket 4.2 20:56:32 10° WSW 20:58:56 14° W 21:01:21 10° NW
BlueWalker 3 2.1 20:55:55 10° WNW 20:59:35 66° NNE 21:03:04 11° E
Cosmos 1025 Rocket 3.7 20:55:46 10° SSW 21:00:01 54° WNW 21:04:19 10° N
Cosmos 990 Rocket 4.1 20:55:05 10° SSW 21:00:16 78° WNW 21:05:30 10° NNE
Aureole 1 Rocket 4.3 21:03:38 10° S 21:10:10 70° ESE 21:17:38 10° NNE
DELTA 2 DEB (DPAF) 4.5 21:06:36 10° NNE 21:10:17 38° E 21:11:59 25° SSE
RESURS DK-1 3.1 21:10:55 10° NNW 21:14:45 43° NE 21:17:10 20° ESE
Cosmos 1544 Rocket 4.0 21:12:54 10° N 21:17:10 50° ENE 21:19:31 24° SE
Cosmos 372 Rocket 3.9 21:14:58 14° SSW 21:19:18 70° ESE 21:24:22 10° NNE
USA 215 3.8 21:13:50 10° E 21:20:15 60° NNE 21:26:41 10° WNW
DNEPR-1 R/B 3.6 21:18:04 10° NW 21:22:16 64° SW 21:24:32 26° SSE
Cosmos 2369 Rocket 3.7 21:20:18 10° WSW 21:25:35 38° NW 21:30:52 10° NNE
Cosmos 1400 Rocket 3.3 21:23:01 10° N 21:26:42 44° ENE 21:28:20 27° SE
Cosmos 2058 4.4 21:25:46 18° ESE 21:26:51 20° E 21:29:48 10° NE
Cosmos 2112 Rocket 4.4 21:23:35 10° NNW 21:28:48 57° ENE 21:32:07 22° SE
Meteor 1-27 4.3 21:24:11 10° NNW 21:29:58 80° W 21:33:45 22° S
Cosmos 1782 4.0 21:30:31 10° NNE 21:33:41 26° ENE 21:35:07 21° ESE
Cosmos 2297 Rocket 2.6 21:30:04 10° NNW 21:35:40 57° NE 21:39:27 20° SE
ISS -3.7 21:33:31 10° WNW 21:36:48 57° SSW 21:37:41 41° SSE
Cosmos 1937 Rocket 3.4 21:34:18 21° S 21:37:42 67° ESE 21:42:48 10° NNE
DELTA 2 R/B (1) 4.4 21:33:20 10° SW 21:37:54 27° S 21:38:43 26° SSE
Cosmos 2098 Rocket 2.6 21:36:05 10° NNW 21:39:16 65° W 21:40:46 31° S
Cosmos 1680 Rocket 3.5 21:34:12 10° NNW 21:39:30 79° ENE 21:42:31 26° SSE
ALOS 2 3.4 21:44:36 23° ESE 21:46:48 41° ENE 21:50:56 10° N
CZ-4C R/B 2.5 21:43:02 10° WSW 21:47:29 60° NW 21:53:16 10° NE
Helios 1B 4.4 21:45:56 10° NNE 21:50:14 80° ESE 21:52:23 29° S
Cosmos 923 Rocket 4.1 21:45:39 10° NNW 21:50:48 66° WSW 21:53:32 28° S
Cosmos 858 Rocket 4.5 21:48:12 25° S 21:51:09 65° ESE 21:56:18 10° NNE
Cosmos 1697 Rocket 4.0 21:50:22 21° SE 21:52:02 24° ESE 21:56:26 10° NE
Cosmos 44 4.2 21:48:22 10° WSW 21:52:30 44° NW 21:56:49 10° NNE
Lacrosse 5 rocket 2.5 21:48:54 10° NW 21:52:37 39° NNE 21:56:20 10° E
Cosmos 1975 Rocket 3.9 21:53:28 15° SW 21:56:45 44° WNW 22:00:53 10° N
MetOp-A 3.2 21:55:24 37° SSE 21:56:47 80° ENE 22:00:35 10° NNW
Cosmos 2228 3.7 21:57:05 10° NNW 22:01:06 44° W 22:03:10 25° SSW
Cosmos 2227 Rocket 2.9 22:02:52 10° NNW 22:08:25 50° NE 22:12:21 19° ESE
GEOS 3 Rocket 4.5 22:04:44 10° ENE 22:09:27 32° ESE 22:10:46 28° SSE
Cosmos 1867 3.8 22:04:33 10° SW 22:10:00 71° NW 22:15:29 10° NE
Gbstr 26 Del rocket 3.8 22:05:48 10° WNW 22:11:05 63° SSW 22:15:20 22° SE
BREEZE M DEB (TANK) 4.1 22:09:01 10° WSW 22:15:53 - E 22:10:09 18° WSW
Cosmos 494 Rocket 3.9 22:06:53 10° NNW 22:12:09 87° ENE 22:14:39 31° SSE
BREEZE-M DEB (TANK) 2.6 22:11:06 10° W 22:17:55 83° S 22:19:47 21° E
CZ-2C R/B 3.9 22:16:24 10° N 22:21:08 75° WNW 22:23:40 27° SSW
Cosmos 1048 Rocket 4.3 22:15:50 10° NNW 22:21:12 65° ENE 22:24:05 27° SE
Cosmos 1898 Rocket 4.5 22:16:40 10° SW 22:21:39 45° WNW 22:26:43 10° NNE
Cosmos 2266 Rocket 4.0 22:19:20 28° S 22:22:57 77° E 22:29:23 10° NNE
Spot 4 3.9 22:21:20 34° S 22:23:26 75° WSW 22:28:17 10° NNW
ATLAS 5 CENTAUR R/B 4.3 22:21:24 10° NNW 22:24:05 17° NNE 22:27:06 10° ENE
Landsat 5 3.1 22:25:01 10° NNE 22:28:49 80° ESE 22:29:50 47° S
ARIANE 5 R/B 3.3 22:30:39 30° SSW 22:32:23 44° W 22:36:39 10° NNW
Cosmos 2315 Rocket 4.1 22:26:26 10° N 22:32:51 77° E 22:36:19 29° SSE
BlueWalker 3 2.3 22:33:43 10° WNW 22:36:56 40° SW 22:36:56 40° SW
Cosmos 1315 Rocket 3.5 22:33:53 10° N 22:37:33 41° ENE 22:38:48 31° ESE
Cosmos 1933 3.2 22:42:51 10° N 22:46:44 76° ENE 22:47:44 48° SSE
ATLAS 2AS CENTAUR R/B 3.1 22:43:17 10° NW 22:50:03 62° NE 22:56:42 10° ESE
Cosmos 1536 Rocket 4.3 22:48:20 26° SW 22:50:26 46° WNW 22:54:42 10° N
Cosmos 1656 4.2 22:47:10 15° SW 22:51:44 56° NW 22:57:11 10° NNE
RESURS DK-1 3.8 22:48:50 10° NW 22:51:59 23° WSW 22:52:29 22° WSW
S3M 4.2 22:46:56 10° NNW 22:53:09 61° W 22:56:23 29° SSW
USA 290 4.0 22:52:24 10° N 22:55:17 27° ENE 22:56:40 20° E
Cosmos 2263 Rocket 2.6 22:50:20 10° NNW 22:55:55 59° NE 22:59:46 20° SE
Cosmos 1606 Rocket 4.0 22:53:11 10° NNW 22:57:26 51° W 22:58:50 36° SSW
Cosmos 2058 3.8 23:01:15 26° WSW 23:02:49 38° WNW 23:06:32 10° N
USA 215 3.2 22:58:07 18° SE 23:03:14 71° SW 23:09:48 10° WNW
Cosmos 1602 3.4 23:07:46 54° WSW 23:08:08 60° WNW 23:11:20 10° N
Cosmos 1782 4.0 23:05:34 10° NNW 23:08:40 26° W 23:09:26 24° WSW
Cosmos 1655 Rocket 4.0 23:09:38 30° SSW 23:13:05 82° W 23:19:30 10° N
Dummy Sat-01 4.5 23:18:25 55° S 23:19:10 90° ESE 23:22:51 10° N
Cosmos 1862 3.9 23:18:17 34° WSW 23:19:17 43° WNW 23:22:48 10° N
Cosmos 2297 Rocket 3.4 23:14:36 10° NW 23:19:22 28° WSW 23:21:13 23° SW
SL-16 R/B 4.4 23:17:47 10° ESE 23:20:06 13° E 23:22:27 10° ENE
Cosmos 1726 Rocket 4.4 23:16:15 10° NNW 23:20:37 42° W 23:22:11 31° SW
Cosmos 2219 3.3 23:15:20 10° NNW 23:21:02 72° ENE 23:24:45 22° SE
PSLV R/B 4.3 23:17:45 10° N 23:22:18 52° WNW 23:24:32 28° SW
Cosmos 2058 Rocket 3.1 23:18:03 10° NNW 23:22:31 75° W 23:23:59 41° S
ALOS 2 4.0 23:22:00 22° WSW 23:23:17 25° W 23:26:58 10° NW
Lacrosse 5 rocket 1.1 23:26:17 10° WNW 23:30:12 65° SW 23:31:06 47° SSE
Cosmos 1980 Rocket 2.3 23:28:23 33° S 23:30:44 60° ESE 23:36:17 10° NE
Orbus 7S? 4.4 23:29:20 36° S 23:31:00 52° SE 23:39:51 10° ENE
Cosmos 1356 Rocket 4.1 23:30:37 10° NNW 23:34:22 38° W 23:35:17 33° SW
Cosmos 1697 Rocket 2.9 23:32:02 24° SW 23:35:29 67° WNW 23:41:10 10° NNE
CZ-4C R/B 4.5 23:32:40 10° WNW 23:37:02 26° NNW 23:42:24 10° NE
CZ-2C R/B 2.9 23:36:53 25° SSE 23:40:13 71° ENE 23:45:50 10° N
Cosmos 1892 Rocket 4.3 23:39:39 28° SW 23:41:21 42° WNW 23:45:29 10° N
PSLV R/B 4.3 23:38:29 10° N 23:42:22 53° WNW 23:43:44 35° SW
Cosmos 1441 Rocket 3.9 23:44:49 32° WSW 23:45:40 38° WNW 23:48:56 10° N
Cosmos 1602 Rocket 4.2 23:45:39 30° SE 23:47:19 45° E 23:51:29 10° NNE
GEOS 3 Rocket 4.0 23:42:28 10° NE 23:47:41 65° NW 23:51:46 17° WSW
IDEFIX/ARIANE 42P 4.2 23:44:02 10° NE 23:48:07 23° E 23:51:12 14° SE
Cosmos 1758 Rocket 3.7 23:47:54 37° SSE 23:49:32 68° E 23:53:58 10° NNE
Meteor 2-3 Rocket 4.1 23:46:44 27° SW 23:49:51 58° WNW 23:55:34 10° N
Cosmos 1626 Rocket 3.5 23:49:13 40° S 23:50:47 86° E 23:55:14 10° N
Cosmos 1844 Rocket 4.0 23:46:01 10° NNW 23:51:18 38° NE 23:56:30 10° ESE
Cosmos 2227 Rocket 3.1 23:47:14 10° NW 23:52:15 33° WSW 23:54:06 27° SW
CENTAUR R/B 4.1 23:49:44 14° SE 23:52:21 18° ESE 23:56:32 10° ENE
Geosat 3.9 23:49:49 10° NNE 23:54:52 89° WNW 23:57:20 31° SSW
